Location: Voyageurs National Park
(48.5020°N, 92.9292°W)
Time: 21:27:02
(UTC-05:00)

PCSat - Visible Passes

Search period start: 23 September 2014 00:00
Search period end: 03 October 2014 00:00
Orbit: 786 x 796 km, 67.1° (Epoch: 22 September)

Date Brightness Start Highest point End Pass type
(mag) Time Alt. Az. Time Alt. Az. Time Alt. Az.
23 Sep 10.3 19:31:06 10° NNW 19:36:08 36° NE 19:41:08 10° ESE visible
23 Sep 10.3 21:14:30 10° NW 21:19:43 48° WSW 21:22:44 24° S visible
24 Sep 9.9 20:43:50 10° NW 20:49:13 63° WSW 20:53:28 16° SSE visible
25 Sep 9.6 20:13:13 10° NW 20:18:41 82° WSW 20:24:06 10° SSE visible
25 Sep 12.1 21:58:30 10° WNW 22:01:15 14° WSW 22:03:59 10° SW visible
26 Sep 9.6 19:42:38 10° NNW 19:48:06 78° NE 19:53:32 10° SE visible
26 Sep 11.9 21:27:10 10° WNW 21:30:54 19° WSW 21:34:38 10° SSW visible
27 Sep 11.6 20:56:08 10° NW 21:00:32 25° WSW 21:04:53 10° SSW visible
28 Sep 11.2 20:25:16 10° NW 20:30:07 34° WSW 20:34:55 10° S visible
29 Sep 10.8 19:54:31 10° NW 19:59:39 44° WSW 20:04:46 10° S visible
30 Sep 10.3 19:23:50 10° NW 19:29:10 59° WSW 19:34:28 10° SSE visible
01 Oct 12.5 20:38:47 10° WNW 20:41:08 13° WSW 20:43:29 10° SW visible
02 Oct 12.3 20:07:18 10° WNW 20:10:48 18° WSW 20:14:18 10° SW visible
